GSAT-10 (GAGAN/PRN 128)

Last updated on Jan. 23, 2021, 7:32 a.m. UTC

1 38779U 12051B   21022.08842597 -.00000154  00000-0  00000-0 0  9994
2 38779   0.0148  89.7438 0003493 177.4469 329.3003  1.00271689 30349
UTC
Height (km)
Latitude
Longitude
Inclination
Orbital Period
UTC large
Height (km)
Speed (km/s)
/
Latitude / Longitude
Inclination (degrees)
Orbital Period (minutes)
Azimuth
Elevation
Range (km)
Doppler Factor
iOS Compass Heading
iOS Angle

Next 30 passes for location: Hong Kong

Rise time Rise Azimuth (degrees) Set time Set Azimuth (degrees) Duration Max altitude (degrees)

No matching passes for this satellites